Torna al catalogo

SL-8 R/B

AttivoLEO
NORAD 11112·ROCKET BODY·🇷🇺 Russia

Lanciato Nov 16, 1978 da Plesetsk Cosmodrome

Loading…

Prossimi Passaggi (prossime 24 ore)

TLE

AggiornatoSource: Space-Track

Epoca: Sep 14, 2026, 10:26 UTC

1 11112U 78105B   26257.43515037  .00000128  00000-0  49974-4 0  9995
2 11112  74.0283  69.5169 0032273 125.9497 234.4659 14.38848733504676

Traccia SL-8 R/B in tempo reale con AllMySat

Download on the App Store